| time (UTC) | temp C | wind direction | speed KPH | gust KPH | rain 1hr cm | rain 24hr cm | rain mn cm | humidity % | barometer mb |
| 20260504035529 | 13 | 201 | 1.6 | 8.0 | 0.00 | 0.20 | 0.20 | 75 | 1005.9 |
| 20260504035029 | 13 | 120 | 3.2 | 8.0 | 0.00 | 0.20 | 0.20 | 75 | 1006.0 |
| 20260504034536 | 13 | 0 | 1.6 | 8.0 | 0.00 | 0.20 | 0.20 | 74 | 1006.2 |
| 20260504034029 | 13 | 252 | 1.6 | 8.0 | 0.00 | 0.20 | 0.20 | 74 | 1006.2 |
| 20260504033529 | 13 | 200 | 1.6 | 6.4 | 0.00 | 0.20 | 0.20 | 74 | 1006.2 |
| 20260504033044 | 13 | 151 | 1.6 | 6.4 | 0.00 | 0.20 | 0.20 | 74 | 1006.2 |
| 20260504032530 | 13 | 227 | 1.6 | 4.8 | 0.00 | 0.20 | 0.20 | 74 | 1006.2 |
| 20260504032029 | 13 | 186 | 1.6 | 4.8 | 0.00 | 0.20 | 0.20 | 74 | 1006.4 |
| 20260504031544 | 13 | 221 | 1.6 | 4.8 | 0.00 | 0.20 | 0.20 | 74 | 1006.5 |
| 20260504031029 | 13 | 213 | 1.6 | 4.8 | 0.00 | 0.20 | 0.20 | 74 | 1006.3 |
| 20260504030528 | 13 | 167 | 1.6 | 3.2 | 0.00 | 0.20 | 0.20 | 74 | 1006.5 |
| 20260504030042 | 13 | 138 | 0.0 | 3.2 | 0.00 | 0.20 | 0.20 | 73 | 1006.6 |
| 20260504025528 | 13 | 148 | 1.6 | 6.4 | 0.00 | 0.20 | 0.20 | 73 | 1006.6 |
| 20260504025026 | 13 | 129 | 0.0 | 6.4 | 0.00 | 0.20 | 0.20 | 73 | 1006.6 |
| 20260504024538 | 13 | 0 | 0.0 | 3.2 | 0.00 | 0.20 | 0.20 | 72 | 1006.5 |
| 20260504024028 | 13 | 0 | 0.0 | 1.6 | 0.00 | 0.20 | 0.20 | 72 | 1006.5 |
| 20260504023529 | 13 | 0 | 0.0 | 3.2 | 0.00 | 0.20 | 0.20 | 71 | 1006.5 |
| 20260504023038 | 13 | 196 | 0.0 | 3.2 | 0.00 | 0.20 | 0.20 | 71 | 1006.4 |
| 20260504022529 | 13 | 0 | 0.0 | 1.6 | 0.00 | 0.20 | 0.20 | 70 | 1006.2 |
| 20260504022032 | 14 | 0 | 0.0 | 1.6 | 0.00 | 0.20 | 0.20 | 69 | 1006.2 |
| 20260504021547 | 14 | 0 | 0.0 | 3.2 | 0.00 | 0.20 | 0.20 | 68 | 1006.2 |
| 20260504021028 | 15 | 234 | 0.0 | 3.2 | 0.00 | 0.20 | 0.20 | 67 | 1006.2 |
| 20260504020528 | 15 | 230 | 0.0 | 3.2 | 0.00 | 0.20 | 0.20 | 66 | 1006.1 |
| 20260504020042 | 15 | 169 | 0.0 | 9.7 | 0.00 | 0.20 | 0.20 | 65 | 1006.1 |
| 20260504015530 | 15 | 168 | 0.0 | 9.7 | 0.00 | 0.20 | 0.20 | 65 | 1006.0 |
| 20260504015029 | 15 | 143 | 3.2 | 9.7 | 0.00 | 0.20 | 0.20 | 64 | 1006.1 |
| 20260504014545 | 16 | 185 | 1.6 | 9.7 | 0.00 | 0.20 | 0.20 | 64 | 1006.0 |
| 20260504014026 | 16 | 181 | 3.2 | 9.7 | 0.00 | 0.20 | 0.20 | 63 | 1005.9 |
| 20260504013526 | 16 | 162 | 1.6 | 8.0 | 0.00 | 0.20 | 0.20 | 63 | 1005.8 |
| 20260504013051 | 16 | 217 | 1.6 | 8.0 | 0.00 | 0.20 | 0.20 | 63 | 1005.8 |
| 20260504012531 | 16 | 201 | 3.2 | 8.0 | 0.00 | 0.20 | 0.20 | 62 | 1006.0 |
| 20260504012025 | 16 | 266 | 1.6 | 8.0 | 0.00 | 0.20 | 0.20 | 62 | 1005.9 |
| 20260504011545 | 16 | 219 | 3.2 | 8.0 | 0.00 | 0.20 | 0.20 | 61 | 1005.9 |
| 20260504011028 | 16 | 226 | 1.6 | 8.0 | 0.00 | 0.20 | 0.20 | 61 | 1005.9 |
| 20260504010529 | 16 | 195 | 3.2 | 8.0 | 0.00 | 0.20 | 0.20 | 60 | 1005.9 |
| 20260504010051 | 17 | 219 | 1.6 | 8.0 | 0.00 | 0.20 | 0.20 | 60 | 1005.9 |
| 20260504005529 | 17 | 163 | 1.6 | 6.4 | 0.00 | 0.20 | 0.20 | 59 | 1005.9 |
| 20260504005029 | 17 | 234 | 1.6 | 4.8 | 0.00 | 0.20 | 0.20 | 59 | 1005.8 |
| 20260504004545 | 17 | 221 | 1.6 | 9.7 | 0.00 | 0.20 | 0.20 | 58 | 1005.7 |
| 20260504004030 | 17 | 169 | 1.6 | 11.3 | 0.00 | 0.20 | 0.20 | 57 | 1005.8 |
| 20260504003528 | 18 | 123 | 1.6 | 11.3 | 0.00 | 0.20 | 0.20 | 56 | 1005.8 |
| 20260504003042 | 18 | 169 | 3.2 | 12.9 | 0.00 | 0.20 | 0.20 | 55 | 1005.8 |
| 20260504002528 | 18 | 176 | 3.2 | 14.5 | 0.00 | 0.20 | 0.20 | 55 | 1005.8 |
| 20260504002026 | 18 | 65 | 3.2 | 14.5 | 0.00 | 0.20 | 0.20 | 55 | 1005.9 |
| 20260504001540 | 18 | 204 | 4.8 | 14.5 | 0.00 | 0.20 | 0.20 | 55 | 1005.9 |
| 20260504001026 | 18 | 143 | 4.8 | 16.1 | 0.00 | 0.20 | 0.20 | 55 | 1005.9 |
| 20260504000527 | 18 | 187 | 3.2 | 16.1 | 0.00 | 0.20 | 0.20 | 55 | 1005.8 |
| 20260504000044 | 18 | 269 | 4.8 | 16.1 | 0.00 | 0.20 | 0.20 | 54 | 1005.9 |
| 20260503235530 | 19 | 250 | 6.4 | 16.1 | 0.00 | 0.20 | 0.20 | 53 | 1005.9 |
| 20260503235026 | 19 | 204 | 4.8 | 16.1 | 0.00 | 0.20 | 0.20 | 53 | 1006.0 |
| 20260503234536 | 19 | 218 | 4.8 | 19.3 | 0.00 | 0.20 | 0.20 | 52 | 1006.0 |
| 20260503234029 | 19 | 215 | 6.4 | 19.3 | 0.00 | 0.20 | 0.20 | 51 | 1005.9 |
| 20260503233529 | 19 | 216 | 6.4 | 19.3 | 0.00 | 0.20 | 0.20 | 52 | 1005.9 |
| 20260503233046 | 19 | 316 | 4.8 | 19.3 | 0.00 | 0.20 | 0.20 | 51 | 1005.9 |
| 20260503232529 | 19 | 261 | 8.0 | 19.3 | 0.00 | 0.20 | 0.20 | 51 | 1005.9 |
| 20260503232030 | 19 | 239 | 6.4 | 19.3 | 0.00 | 0.20 | 0.20 | 51 | 1005.9 |
| 20260503231549 | 20 | 218 | 6.4 | 20.9 | 0.00 | 0.20 | 0.20 | 51 | 1005.7 |
| 20260503231031 | 20 | 279 | 6.4 | 20.9 | 0.00 | 0.20 | 0.20 | 50 | 1005.9 |
| 20260503230531 | 20 | 263 | 8.0 | 24.1 | 0.00 | 0.20 | 0.20 | 50 | 1006.1 |
| 20260503230043 | 20 | 250 | 6.4 | 24.1 | 0.00 | 0.20 | 0.20 | 50 | 1006.1 |
| 20260503225529 | 20 | 179 | 6.4 | 24.1 | 0.00 | 0.20 | 0.20 | 50 | 1006.2 |
| 20260503225031 | 20 | 307 | 8.0 | 27.4 | 0.00 | 0.20 | 0.20 | 50 | 1006.2 |
| 20260503224538 | 20 | 116 | 9.7 | 27.4 | 0.00 | 0.20 | 0.20 | 49 | 1006.2 |
| 20260503224030 | 20 | 192 | 4.8 | 22.5 | 0.00 | 0.20 | 0.20 | 51 | 1006.2 |
| 20260503223533 | 20 | 17 | 6.4 | 22.5 | 0.00 | 0.20 | 0.20 | 48 | 1006.3 |
| 20260503223039 | 20 | 223 | 6.4 | 24.1 | 0.00 | 0.20 | 0.20 | 49 | 1006.3 |
| 20260503222530 | 20 | 179 | 8.0 | 24.1 | 0.00 | 0.20 | 0.20 | 48 | 1006.5 |
| 20260503222030 | 20 | 167 | 8.0 | 25.7 | 0.00 | 0.20 | 0.20 | 50 | 1006.4 |
| 20260503221537 | 20 | 220 | 8.0 | 25.7 | 0.00 | 0.20 | 0.20 | 50 | 1006.4 |
| 20260503221031 | 20 | 122 | 9.7 | 24.1 | 0.00 | 0.20 | 0.20 | 50 | 1006.7 |
| 20260503220531 | 20 | 187 | 6.4 | 14.5 | 0.00 | 0.20 | 0.20 | 49 | 1006.6 |
| 20260503220047 | 19 | 114 | 4.8 | 14.5 | 0.00 | 0.20 | 0.20 | 50 | 1006.6 |
| 20260503215531 | 18 | 169 | 4.8 | 19.3 | 0.00 | 0.20 | 0.20 | 50 | 1006.6 |
| 20260503215030 | 18 | 258 | 6.4 | 19.3 | 0.00 | 0.20 | 0.20 | 50 | 1006.6 |
| 20260503214543 | 19 | 301 | 8.0 | 20.9 | 0.00 | 0.20 | 0.20 | 49 | 1006.8 |
| 20260503214030 | 19 | 167 | 8.0 | 20.9 | 0.00 | 0.20 | 0.20 | 49 | 1006.8 |
| 20260503213530 | 18 | 233 | 6.4 | 20.9 | 0.00 | 0.20 | 0.20 | 50 | 1006.9 |
| 20260503213043 | 18 | 235 | 8.0 | 17.7 | 0.00 | 0.20 | 0.20 | 51 | 1007.0 |
| 20260503212530 | 18 | 195 | 8.0 | 17.7 | 0.00 | 0.20 | 0.20 | 51 | 1006.9 |
| 20260503212030 | 18 | 168 | 6.4 | 19.3 | 0.00 | 0.20 | 0.20 | 52 | 1006.9 |
| 20260503211539 | 18 | 136 | 9.7 | 19.3 | 0.00 | 0.20 | 0.20 | 52 | 1007.2 |
| 20260503211030 | 18 | 214 | 8.0 | 17.7 | 0.00 | 0.20 | 0.20 | 53 | 1007.3 |
| 20260503210531 | 18 | 246 | 8.0 | 22.5 | 0.00 | 0.20 | 0.20 | 52 | 1007.4 |
| 20260503210043 | 18 | 229 | 6.4 | 22.5 | 0.00 | 0.20 | 0.20 | 51 | 1007.5 |
| 20260503205532 | 18 | 158 | 9.7 | 29.0 | 0.00 | 0.20 | 0.20 | 50 | 1007.7 |
| 20260503205031 | 18 | 171 | 8.0 | 29.0 | 0.00 | 0.20 | 0.20 | 51 | 1007.7 |
| 20260503204542 | 18 | 187 | 9.7 | 24.1 | 0.00 | 0.20 | 0.20 | 51 | 1007.9 |
| 20260503204027 | 17 | 255 | 9.7 | 24.1 | 0.00 | 0.20 | 0.20 | 52 | 1008.0 |
| 20260503203530 | 17 | 192 | 9.7 | 24.1 | 0.00 | 0.20 | 0.20 | 50 | 1008.1 |
| 20260503203049 | 18 | 206 | 9.7 | 24.1 | 0.00 | 0.20 | 0.20 | 50 | 1008.2 |
| 20260503202529 | 18 | 211 | 9.7 | 24.1 | 0.00 | 0.20 | 0.20 | 49 | 1008.3 |
| 20260503202029 | 18 | 271 | 11.3 | 22.5 | 0.00 | 0.20 | 0.20 | 49 | 1008.3 |
| 20260503201544 | 17 | 136 | 8.0 | 27.4 | 0.00 | 0.20 | 0.20 | 48 | 1008.3 |
| 20260503201028 | 18 | 197 | 6.4 | 27.4 | 0.00 | 0.20 | 0.20 | 51 | 1008.5 |
| 20260503200528 | 18 | 169 | 9.7 | 27.4 | 0.00 | 0.20 | 0.20 | 48 | 1008.5 |
| 20260503200040 | 18 | 210 | 8.0 | 27.4 | 0.00 | 0.20 | 0.20 | 49 | 1008.5 |
| 20260503195528 | 18 | 152 | 11.3 | 27.4 | 0.00 | 0.20 | 0.20 | 47 | 1008.5 |
| 20260503195028 | 18 | 179 | 11.3 | 27.4 | 0.00 | 0.20 | 0.20 | 49 | 1008.6 |
| 20260503194545 | 18 | 238 | 11.3 | 24.1 | 0.00 | 0.20 | 0.20 | 50 | 1008.8 |
| 20260503194028 | 17 | 215 | 8.0 | 35.4 | 0.00 | 0.20 | 0.20 | 52 | 1008.8 |
| 20260503193529 | 17 | 33 | 9.7 | 35.4 | 0.00 | 0.20 | 0.20 | 52 | 1008.7 |
| 20260503193045 | 17 | 253 | 14.5 | 30.6 | 0.00 | 0.20 | 0.20 | 51 | 1008.9 |
| 20260503192527 | 18 | 207 | 16.1 | 30.6 | 0.00 | 0.20 | 0.20 | 50 | 1008.9 |
| 20260503192028 | 18 | 138 | 14.5 | 33.8 | 0.00 | 0.20 | 0.20 | 52 | 1008.7 |
| 20260503191543 | 17 | 170 | 14.5 | 33.8 | 0.00 | 0.20 | 0.20 | 53 | 1009.0 |
| 20260503191028 | 17 | 172 | 14.5 | 33.8 | 0.00 | 0.20 | 0.20 | 54 | 1008.9 |
| 20260503190527 | 17 | 256 | 11.3 | 40.2 | 0.00 | 0.20 | 0.20 | 58 | 1009.1 |
| 20260503190045 | 17 | 226 | 14.5 | 40.2 | 0.00 | 0.20 | 0.20 | 57 | 1009.2 |
| 20260503185529 | 17 | 167 | 11.3 | 24.1 | 0.00 | 0.20 | 0.20 | 61 | 1009.4 |
| 20260503185030 | 16 | 167 | 12.9 | 24.1 | 0.00 | 0.20 | 0.20 | 60 | 1009.3 |
| 20260503184545 | 16 | 156 | 8.0 | 35.4 | 0.00 | 0.20 | 0.20 | 64 | 1009.4 |
| 20260503184029 | 16 | 130 | 14.5 | 35.4 | 0.00 | 0.20 | 0.20 | 64 | 1009.7 |
| 20260503183528 | 16 | 208 | 9.7 | 22.5 | 0.00 | 0.20 | 0.20 | 67 | 1009.7 |
| 20260503183036 | 15 | 128 | 12.9 | 29.0 | 0.00 | 0.20 | 0.20 | 66 | 1009.9 |
| 20260503182527 | 15 | 150 | 11.3 | 29.0 | 0.00 | 0.20 | 0.20 | 68 | 1009.9 |
| 20260503182027 | 15 | 141 | 9.7 | 25.7 | 0.00 | 0.20 | 0.20 | 69 | 1010.1 |
| 20260503181543 | 14 | 162 | 8.0 | 19.3 | 0.00 | 0.20 | 0.20 | 74 | 1010.3 |
| 20260503181028 | 13 | 137 | 8.0 | 17.7 | 0.00 | 0.20 | 0.20 | 78 | 1010.3 |
| 20260503180529 | 13 | 164 | 9.7 | 19.3 | 0.00 | 0.20 | 0.20 | 78 | 1010.6 |
| 20260503180054 | 12 | 192 | 8.0 | 19.3 | 0.00 | 0.20 | 0.20 | 80 | 1010.7 |
| 20260503175528 | 12 | 172 | 8.0 | 19.3 | 0.00 | 0.20 | 0.20 | 82 | 1010.9 |
| 20260503175026 | 11 | 185 | 6.4 | 12.9 | 0.00 | 0.20 | 0.20 | 83 | 1011.0 |
| 20260503174546 | 10 | 162 | 6.4 | 11.3 | 0.00 | 0.20 | 0.20 | 85 | 1011.2 |
| 20260503174028 | 10 | 160 | 4.8 | 12.9 | 0.00 | 0.20 | 0.20 | 85 | 1011.4 |
| 20260503173526 | 10 | 186 | 4.8 | 12.9 | 0.00 | 0.20 | 0.20 | 85 | 1011.5 |
| 20260503173047 | 10 | 150 | 4.8 | 11.3 | 0.03 | 0.20 | 0.20 | 85 | 1011.6 |
| 20260503172525 | 9 | 197 | 3.2 | 14.5 | 0.03 | 0.20 | 0.20 | 86 | 1011.9 |
| 20260503172028 | 9 | 127 | 4.8 | 14.5 | 0.03 | 0.20 | 0.20 | 86 | 1012.1 |
| 20260503171537 | 9 | 175 | 4.8 | 14.5 | 0.03 | 0.20 | 0.20 | 86 | 1012.7 |
| 20260503171026 | 9 | 211 | 3.2 | 8.0 | 0.03 | 0.20 | 0.20 | 86 | 1012.6 |
| 20260503170530 | 9 | 169 | 4.8 | 6.4 | 0.03 | 0.20 | 0.20 | 86 | 1012.8 |
| 20260503150530 | 10 | 189 | 4.8 | 17.7 | 0.00 | 0.00 | 0.00 | 71 | 1014.4 |
| 20260503131027 | 10 | 240 | 6.4 | 14.5 | 0.00 | 0.00 | 0.00 | 68 | 1014.4 |
| 20260503130527 | 10 | 206 | 6.4 | 16.1 | 0.00 | 0.00 | 0.00 | 67 | 1014.6 |
| 20260503110530 | 6 | 225 | 1.6 | 8.0 | 0.00 | 0.00 | 0.00 | 72 | 1014.3 |
| 20260503081544 | 6 | 0 | 0.0 | 3.2 | 0.00 | 0.00 | 0.00 | 71 | 1015.0 |
| 20260503081030 | 6 | 208 | 0.0 | 3.2 | 0.00 | 0.00 | 0.00 | 71 | 1015.0 |
| 20260503080530 | 6 | 210 | 0.0 | 3.2 | 0.00 | 0.00 | 0.00 | 70 | 1015.1 |
| 20260503072551 | 6 | 183 | 1.6 | 4.8 | 0.00 | 0.00 | 0.00 | 69 | 1014.9 |
| 20260503072029 | 6 | 141 | 1.6 | 6.4 | 0.00 | 0.00 | 0.00 | 68 | 1014.8 |
| 20260503071536 | 6 | 233 | 1.6 | 6.4 | 0.00 | 0.00 | 0.00 | 69 | 1015.0 |
| 20260503071028 | 6 | 221 | 1.6 | 4.8 | 0.00 | 0.00 | 0.00 | 69 | 1014.9 |
| 20260503070532 | 6 | 139 | 1.6 | 4.8 | 0.00 | 0.00 | 0.00 | 68 | 1015.1 |
| 20260503060107 | 6 | 204 | 1.6 | 4.8 | 0.00 | 0.00 | 0.00 | 66 | 1015.7 |
| 20260503055028 | 6 | 163 | 0.0 | 4.8 | 0.00 | 0.00 | 0.00 | 66 | 1015.7 |
| 20260503054543 | 6 | 220 | 0.0 | 3.2 | 0.00 | 0.00 | 0.00 | 67 | 1015.7 |
| 20260503054030 | 6 | 217 | 0.0 | 3.2 | 0.00 | 0.00 | 0.00 | 67 | 1015.8 |
| 20260503053529 | 6 | 0 | 0.0 | 4.8 | 0.00 | 0.00 | 0.00 | 67 | 1015.8 |
| 20260503053042 | 6 | 150 | 0.0 | 4.8 | 0.00 | 0.00 | 0.00 | 67 | 1015.9 |
| 20260503052527 | 6 | 167 | 0.0 | 4.8 | 0.00 | 0.00 | 0.00 | 67 | 1015.9 |
| 20260503052032 | 6 | 190 | 0.0 | 1.6 | 0.00 | 0.00 | 0.00 | 67 | 1015.8 |
| 20260503051543 | 6 | 164 | 0.0 | 1.6 | 0.00 | 0.00 | 0.00 | 67 | 1016.0 |
| 20260503051032 | 6 | 224 | 0.0 | 3.2 | 0.00 | 0.00 | 0.00 | 67 | 1016.0 |
| 20260503050529 | 6 | 131 | 0.0 | 3.2 | 0.00 | 0.00 | 0.00 | 67 | 1015.8 |
| 20260503050043 | 6 | 0 | 0.0 | 3.2 | 0.00 | 0.00 | 0.00 | 67 | 1016.0 |
| 20260503045529 | 6 | 160 | 0.0 | 3.2 | 0.00 | 0.00 | 0.00 | 67 | 1016.0 |
| 20260503045028 | 6 | 0 | 0.0 | 3.2 | 0.00 | 0.00 | 0.00 | 67 | 1016.1 |
| 20260503044538 | 6 | 200 | 0.0 | 3.2 | 0.00 | 0.00 | 0.00 | 67 | 1016.1 |
| 20260503044029 | 6 | 0 | 0.0 | 1.6 | 0.00 | 0.00 | 0.00 | 66 | 1016.1 |
| 20260503043526 | 6 | 0 | 0.0 | 3.2 | 0.00 | 0.00 | 0.00 | 66 | 1016.1 |
| 20260503043050 | 7 | 203 | 0.0 | 6.4 | 0.00 | 0.00 | 0.00 | 65 | 1016.1 |
| 20260503042530 | 7 | 243 | 0.0 | 6.4 | 0.00 | 0.00 | 0.00 | 65 | 1016.1 |
| 20260503042030 | 7 | 0 | 0.0 | 3.2 | 0.00 | 0.00 | 0.00 | 65 | 1016.1 |
| 20260503041543 | 7 | 165 | 0.0 | 1.6 | 0.00 | 0.00 | 0.00 | 65 | 1016.1 |
| 20260503041029 | 7 | 0 | 0.0 | 1.6 | 0.00 | 0.00 | 0.00 | 65 | 1016.1 |
| 20260503040529 | 7 | 224 | 0.0 | 1.6 | 0.00 | 0.00 | 0.00 | 65 | 1016.1 |
| 20260503040055 | 7 | 214 | 0.0 | 3.2 | 0.00 | 0.00 | 0.00 | 65 | 1016.2 |